K4NSC-13 Weather Reports


time (UTC)temp
C
wind
direction
speed
KPH
gust
KPH
rain 1hr
cm
rain 24hr
cm
rain mn
cm
humidity
%
barometer
mb
20260506080526 16 174 3.2 4.8 0.00 0.00 0.00 86 1015.2
20260506073526 16 178 3.2 6.4 0.00 0.00 0.00 85 1015.1
20260506072540 17 140 1.6 4.8 0.00 0.00 0.00 84 1015.2
20260506071526 17 169 1.6 4.8 0.00 0.00 0.00 84 1015.2
20260506070527 17 169 1.6 4.8 0.00 0.00 0.00 84 1015.0
20260506061609 17 188 1.6 4.8 0.00 0.00 0.00 82 1015.1
20260506060529 17 238 1.6 6.4 0.00 0.00 0.00 82 1015.4
20260506050529 18 321 1.6 3.2 0.00 0.00 0.00 80 1015.4
20260506044520 18 194 3.2 9.7 0.00 0.00 0.00 79 1015.6
20260506043529 18 10 1.6 3.2 0.00 0.00 0.00 79 1015.6
20260506042530 18 275 3.2 4.8 0.00 0.00 0.00 78 1015.6
20260506041529 18 344 1.6 4.8 0.00 0.00 0.00 78 1015.7
20260506040529 18 209 3.2 6.4 0.00 0.00 0.00 78 1015.7
20260506035529 18 206 3.2 4.8 0.00 0.00 0.00 77 1015.6
20260506034520 18 198 3.2 8.0 0.00 0.00 0.00 76 1015.6
20260506033530 19 312 3.2 8.0 0.00 0.00 0.00 76 1015.6
20260506032530 19 181 1.6 3.2 0.00 0.00 0.00 75 1015.5
20260506031551 19 274 3.2 6.4 0.00 0.00 0.00 75 1015.3
20260506030536 20 312 4.8 11.3 0.00 0.00 0.00 74 1015.3
20260506025532 20 272 3.2 8.0 0.00 0.00 0.00 73 1015.2
20260506024523 20 283 4.8 14.5 0.00 0.00 0.00 71 1015.2
20260506023531 20 335 1.6 4.8 0.00 0.00 0.00 70 1015.2
20260506022522 20 332 6.4 16.1 0.00 0.00 0.00 68 1015.4
20260506021531 21 296 3.2 6.4 0.00 0.00 0.00 67 1015.4
20260506020542 21 319 3.2 9.7 0.00 0.00 0.00 66 1015.2
20260506015522 21 316 4.8 11.3 0.00 0.00 0.00 65 1015.0
20260506014523 21 328 4.8 14.5 0.00 0.00 0.00 65 1014.9
20260506013522 22 299 3.2 9.7 0.00 0.00 0.00 64 1014.7
20260506012531 22 337 4.8 12.9 0.00 0.00 0.00 63 1014.5
20260506011523 22 315 4.8 9.7 0.00 0.00 0.00 63 1014.3
20260506010523 22 344 4.8 12.9 0.00 0.00 0.00 62 1014.2
20260506005520 23 338 4.8 16.1 0.00 0.00 0.00 61 1014.0
20260506004524 23 340 4.8 8.0 0.00 0.00 0.00 59 1013.5
20260506003524 23 313 4.8 9.7 0.00 0.00 0.00 58 1013.4
20260506002544 23 338 4.8 8.0 0.00 0.00 0.00 55 1013.3
20260506001519 23 324 4.8 8.0 0.00 0.00 0.00 53 1013.4
20260506000541 24 303 1.6 4.8 0.00 0.00 0.00 50 1013.3
20260505235517 25 308 3.2 4.8 0.00 0.00 0.00 47 1013.3
20260505234533 26 297 1.6 3.2 0.00 0.00 0.00 45 1013.2
20260505233553 26 33 1.6 4.8 0.00 0.00 0.00 44 1013.2
20260505232533 26 107 3.2 6.4 0.00 0.00 0.00 43 1013.2
20260505231519 26 170 1.6 4.8 0.00 0.00 0.00 42 1013.2
20260505230519 27 59 3.2 6.4 0.00 0.00 0.00 42 1013.3
20260505225518 27 176 3.2 6.4 0.00 0.00 0.00 42 1013.4
20260505224519 26 164 4.8 8.0 0.00 0.00 0.00 43 1013.3
20260505223519 27 173 3.2 11.3 0.00 0.00 0.00 42 1013.1
20260505222519 27 350 4.8 12.9 0.00 0.00 0.00 42 1013.2
20260505221601 27 11 1.6 3.2 0.00 0.00 0.00 41 1013.2
20260505220520 27 308 4.8 11.3 0.00 0.00 0.00 41 1013.2
20260505215519 27 158 4.8 12.9 0.00 0.00 0.00 41 1013.2
20260505214520 27 138 3.2 6.4 0.00 0.00 0.00 42 1013.3
20260505213521 27 185 4.8 17.7 0.00 0.00 0.00 43 1013.4
20260505212628 27 305 3.2 8.0 0.00 0.00 0.00 42 1013.5
20260505211520 27 164 4.8 8.0 0.00 0.00 0.00 43 1013.5
20260505210520 28 338 6.4 12.9 0.00 0.00 0.00 42 1013.6
20260505205520 28 160 4.8 8.0 0.00 0.00 0.00 42 1013.6
20260505204520 27 272 3.2 6.4 0.00 0.00 0.00 42 1013.6
20260505203521 27 256 4.8 11.3 0.00 0.00 0.00 43 1013.7
20260505202521 27 300 4.8 14.5 0.00 0.00 0.00 43 1014.0
20260505201524 27 146 4.8 9.7 0.00 0.00 0.00 43 1014.0
20260505200521 27 142 6.4 12.9 0.00 0.00 0.00 42 1014.1
20260505195521 27 158 4.8 9.7 0.00 0.00 0.00 43 1014.2
20260505194529 27 152 4.8 11.3 0.00 0.00 0.00 42 1014.3
20260505193521 27 260 4.8 14.5 0.00 0.00 0.00 43 1014.5
20260505192521 27 172 4.8 9.7 0.00 0.00 0.00 43 1014.6
20260505191521 27 145 6.4 16.1 0.00 0.00 0.00 42 1014.7
20260505190519 27 307 6.4 20.9 0.00 0.00 0.00 43 1015.1
20260505185522 27 172 4.8 12.9 0.00 0.00 0.00 43 1015.3
20260505184522 27 161 4.8 11.3 0.00 0.00 0.00 43 1015.7
20260505183525 27 154 6.4 12.9 0.00 0.00 0.00 45 1015.8
20260505182520 27 142 9.7 19.3 0.00 0.00 0.00 44 1015.9
20260505181522 27 160 8.0 14.5 0.00 0.00 0.00 43 1015.8
20260505180522 27 197 3.2 8.0 0.00 0.00 0.00 44 1015.8
20260505175522 26 163 4.8 11.3 0.00 0.00 0.00 45 1015.6
20260505174522 26 169 6.4 11.3 0.00 0.00 0.00 45 1015.7
20260505173522 26 144 4.8 17.7 0.00 0.00 0.00 46 1015.7
20260505172543 26 320 4.8 14.5 0.00 0.00 0.00 47 1015.9
20260505171523 26 349 4.8 17.7 0.00 0.00 0.00 49 1016.0
20260505170524 26 157 6.4 11.3 0.00 0.00 0.00 49 1016.3
20260505165523 26 148 6.4 14.5 0.00 0.00 0.00 49 1016.5
20260505164523 25 291 3.2 8.0 0.00 0.00 0.00 50 1016.6
20260505163524 25 158 4.8 8.0 0.00 0.00 0.00 47 1016.7
20260505162518 25 281 4.8 11.3 0.00 0.00 0.00 54 1016.8
20260505161538 24 149 6.4 12.9 0.00 0.00 0.00 54 1017.0
20260505160518 25 149 4.8 9.7 0.00 0.00 0.00 55 1017.1
20260505152518 23 140 6.4 11.3 0.00 0.00 0.00 62 1017.3
20260505151519 23 152 4.8 9.7 0.00 0.00 0.00 62 1017.3
20260505150519 23 142 6.4 12.9 0.00 0.00 0.00 64 1017.3
20260505140606 21 163 4.8 9.7 0.00 0.00 0.00 68 1017.3
20260505124526 19 258 0.0 3.2 0.00 0.00 0.00 76 1017.3
20260505123527 18 0.0 0.0 0.00 0.00 0.00 78 1017.3
20260505122528 17 21 0.0 1.6 0.00 0.00 0.00 83 1017.3
20260505121528 16 179 1.6 3.2 0.00 0.00 0.00 82 1017.2
20260505120527 15 214 0.0 0.0 0.00 0.00 0.00 84 1017.3
20260505115527 13 0.0 0.0 0.00 0.00 0.00 89 1017.2
20260505114608 11 0.0 0.0 0.00 0.00 0.00 95 1017.3
20260505113528 10 7 0.0 1.6 0.00 0.00 0.00 97 1017.3
20260505112549 10 3 0.0 1.6 0.00 0.00 0.00 97 1017.2
20260505111548 10 328 0.0 1.6 0.00 0.00 0.00 97 1017.2
20260505110528 10 0.0 0.0 0.00 0.00 0.00 97 1017.2
20260505101529 10 336 0.0 1.6 0.00 0.00 0.00 96 1016.7
20260505100529 10 0.0 0.0 0.00 0.00 0.00 95 1016.5
20260505095530 10 0.0 0.0 0.00 0.00 0.00 95 1016.5
20260505094529 10 0.0 0.0 0.00 0.00 0.00 94 1016.5
20260505093545 11 0.0 0.0 0.00 0.00 0.00 94 1016.4
20260505092529 11 0.0 0.0 0.00 0.00 0.00 93 1016.4
20260505091530 11 358 0.0 1.6 0.00 0.00 0.00 93 1016.4
20260505090530 11 3 0.0 0.0 0.00 0.00 0.00 92 1016.3
20260505085530 11 0.0 0.0 0.00 0.00 0.00 91 1016.3
20260505084530 11 0.0 0.0 0.00 0.00 0.00 90 1016.2
20260505083531 11 339 0.0 1.6 0.00 0.00 0.00 91 1016.2
20260505082556 11 341 0.0 1.6 0.00 0.00 0.00 91 1016.2
20260505081530 11 0.0 0.0 0.00 0.00 0.00 90 1016.1